CDT,Max TemperatureF,Mean TemperatureF,Min TemperatureF,Max Dew PointF,MeanDew PointF,Min DewpointF,Max Humidity, Mean Humidity, Min Humidity, Max Sea Level PressureIn, Mean Sea Level PressureIn, Min Sea Level PressureIn, Max VisibilityMiles, Mean VisibilityMiles, Min VisibilityMiles, Max Wind SpeedMPH, Mean Wind SpeedMPH, Max Gust SpeedMPH,PrecipitationIn, CloudCover, Events, WindDirDegrees
2011-10-1,69,54,39,45,39,36,92,61,30,30.29,30.23,30.15,10,10,10,12,3,14,0.00,0,,70
2011-10-2,72,56,40,44,39,37,89,60,31,30.31,30.24,30.19,10,10,10,12,4,15,0.00,0,,143
2011-10-3,77,60,43,49,43,38,83,56,29,30.28,30.22,30.17,10,10,10,7,5,,0.00,0,,162
2011-10-4,79,63,47,50,45,41,80,54,28,30.28,30.21,30.16,10,10,10,9,6,13,0.00,0,,157
2011-10-5,78,64,50,46,44,41,77,52,27,30.22,30.16,30.10,10,10,10,16,10,21,0.00,0,,148
2011-10-6,81,69,56,52,49,46,72,54,35,30.16,30.09,30.04,10,10,10,21,14,25,0.00,0,,152
2011-10-7,80,71,61,58,52,49,72,54,36,30.20,30.12,30.06,10,10,10,25,16,33,0.00,0,,155
2011-10-8,79,70,61,57,54,51,73,58,42,30.22,30.14,30.10,10,10,10,21,13,25,0.00,0,,144
2011-10-9,77,68,58,56,53,48,78,59,40,30.18,30.13,30.07,10,10,10,24,13,30,0.00,1,,133
2011-10-10,75,66,56,63,56,48,100,80,60,30.09,30.03,29.98,10,10,9,25,7,0,0.03,2,Rain,159
2011-10-11,71,63,55,63,59,55,100,87,73,29.99,29.93,29.83,10,8,2,12,6,14,0.15,4,Rain,154
2011-10-12,70,64,57,61,58,52,97,84,70,29.83,29.76,29.65,10,10,10,20,10,24,0.39,4,Rain-Thunderstorm,165
2011-10-13,72,61,49,54,46,37,93,62,31,29.85,29.80,29.73,10,10,10,25,10,32,0.00,1,,299
2011-10-14,73,60,46,43,37,32,76,50,23,30.05,29.94,29.85,10,10,6,12,5,28,0.00,0,,292
2011-10-15,73,56,39,45,39,35,85,58,30,30.16,30.06,29.96,10,10,10,15,6,21,0.00,0,,180
2011-10-16,83,69,54,54,48,44,66,50,34,29.98,29.93,29.86,10,10,10,28,13,35,0.00,0,,228
2011-10-17,70,57,43,48,42,33,66,57,47,29.97,29.88,29.74,10,9,2,29,12,40,0.48,2,Rain-Thunderstorm,73
2011-10-18,54,46,38,45,40,31,100,75,50,29.96,29.92,29.81,10,9,3,23,14,29,0.15,7,Rain-Thunderstorm,350
2011-10-19,46,39,32,34,32,30,96,75,53,29.99,29.94,29.89,10,10,10,23,12,30,0.00,6,,314
2011-10-20,52,42,32,33,30,27,82,62,41,30.13,30.03,29.96,10,10,10,20,7,28,0.00,1,,293
2011-10-21,66,47,28,41,34,26,92,63,34,30.23,30.16,30.12,10,10,9,10,5,13,0.00,0,,186
2011-10-22,74,57,40,48,44,38,93,64,35,30.14,30.07,29.99,10,10,9,10,3,13,0.00,0,,152
2011-10-23,71,60,48,53,50,45,93,73,53,30.07,30.01,29.97,10,10,10,13,7,16,0.00,0,,202
2011-10-24,77,61,44,56,50,43,100,71,41,30.19,30.12,30.06,10,8,2,14,7,18,0.00,0,,197
2011-10-25,80,68,55,58,54,49,86,64,42,30.09,29.94,29.82,10,10,10,33,17,41,0.00,1,,179
2011-10-26,70,59,47,59,48,46,100,83,66,29.99,29.93,29.84,10,7,2,16,9,18,0.08,7,Rain,354
2011-10-27,54,49,44,46,39,34,100,75,50,30.15,30.07,29.98,10,10,7,16,8,23,T,5,Rain,13
2011-10-28,57,45,33,37,31,25,92,62,32,30.24,30.19,30.14,10,10,10,15,5,22,0.00,1,,302
2011-10-29,62,46,30,34,30,26,85,58,30,30.25,30.15,30.06,10,10,10,18,8,26,0.00,0,,198
2011-10-30,64,50,35,36,33,26,65,51,36,30.15,30.08,30.03,10,10,10,24,13,31,0.00,1,,221
2011-10-31,67,50,33,35,30,26,75,51,26,30.18,30.12,30.07,10,10,10,18,8,22,0.00,0,,207